Weather in Bulgakovo

Russia / Republic of Bashkortostan     54°29′27″N   55°53′14″E
temp.,
°C
wind,
m/s
gust,
m/s
humid.,
%
clouds,
%
prec.,
mm/h
press.,
hPa
HPBL,
m
8 august, mon
mon823:00+21ne2267100 0.0 101816
02:00+19ne117384 0.0 101811
05:00+20nnw1170100 0.0 101911
08:00+21n227342 0.0 1019140
11:00+26ne33588 0.0 1019574
14:00+29nne334652 0.0 10181355
17:00+29ne234191 0.0 10171776
20:00+24nne3757100 0.0 1018137
9 august, tue
tue923:00+20ne227077 0.0 101813
02:00+20nne1175100 0.1 101812
05:00+18nne118266 0.1 101911
08:00+21ne1277100 0.2 1019113
11:00+24nne1162100 0.2 1019525
14:00+27nne2252100 0.0 10191055
17:00+28nnw1251100 0.0 10181136
20:00+25nw1265100 0.0 101816
10 august, wed
wed1023:00+20e0081100 0.8 101811
02:00+19nw118267 0.0 101811
05:00+18se008499 0.0 101811
08:00+20s117852 0.0 1019108
11:00+25s226398 0.0 1019618
14:00+28wsw125067 0.1 10181498
17:00+29nnw234496 0.1 10171960
20:00+25n126286 0.0 101716
11 august, thu
thu1123:00+23w126387 0.0 101713
02:00+19wsw227646 0.1 101712
05:00+18s228579 0.9 101717
08:00+20sw2580100 0.0 1017195
11:00+24ssw336499 0.0 1016523
14:00+27wnw565377 0.1 10161504
17:00+21nw588262 3.3 1015409
20:00+21nw476881 0.1 1016161
12 august, fri
fri1223:00+16nw497847 0.1 1018249
02:00+13wnw38876 0.0 1019203
05:00+12wnw499215 0.0 1019275
08:00+14nw578196 0.0 1020373
11:00+19nw5660100 0.0 10201024
14:00+22nw5744100 0.0 10192002
17:00+19nw3759100 0.0 1019226
20:00+19w22669 0.0 101823